Powrót do katalogu

FENGYUN 1C DEB

LostSSO
NORAD 37700·DEBRIS·🇨🇳 China

Wystrzelony May 10, 1999 z Taiyuan Satellite Launch Center

Loading…

Następne Przeloty (najbliższe 24 godziny)

TLE

NieaktualneSource: Space-Track

Epoka: Jul 16, 2011, 07:24 UTC

1 37700U 99025ELR 11197.30896769  .00000229  00000-0  15364-3 0  9994
2 37700  99.0488 213.9414 0030867 282.6088  77.5297 14.10480862128911

Śledź FENGYUN 1C DEB w czasie rzeczywistym z AllMySat

Download on the App Store